Showing default

R5-S2, 60207

Orbit data source: Space-Track

R5-S2, 60207 is a payload satellite owned by NASA JSC (US) in SSO that was launched on Thu, 04 Jul 2024 UTC via an FIREFLY ALPHA launch vehicle from the Air Force Western Test Range (AFWTR). Payload-class satellites include a variety of spacecraft equipped with specific instruments for various scientific and technological missions. These include communications satellites like Starlink; space stations such as the ISS; scientific satellites like the Hubble; Earth observation satellites from companies like Planet Labs, Umbra, and HawkEye 360; GPS; miniature CubeSats for education and research; and military/defense satellites.

Loading next visibility...
Identifier
60207, 2024-125E
Orbit
SSO
Last TLE update
13 hours ago
Origin
Manufacturer
NASA JSC
Mission
Operational spacecraft
Bus & Motor
CUBESAT 6U, Unknown motor
Mass
10 kg wet, ~10 kg dry
Launch date (UTC)
2024-07-04 (1 year ago)
Launch vehicle
FIREFLY ALPHA
Launch site
Air Force Western Test Range (AFWTR)
Object type
Payload
Rocket body
Debris
Shape & HBR
Unknown
Radar Cross Section
Small (<0.1 m²)

Expand to show TLE details & history

TLE from 13 hours ago
0 R5-S2
1 60207U 24125E   25181.56456381  .00007701  00000-0  24562-3 0  9991
2 60207  97.2791  32.1822 0022529  60.7266 299.6224 15.32540603 55123
Epoch: 2025-06-30T13:32Z
TLE epoch observation values (Epoch: 2025-06-30T13:32:58.313Z)
Latitude
-0.00004°
Longitude
-89.93332°
Altitude
463.747 km
Speed
7.639 km/s
True Right ascension
02h 08m 43s
True Declination
0° 00' 00"
Sunlit
Object was in daylight at epoch
Visualization orbit readout
Latitude
-2.59007°
Longitude
-89.0908°
Altitude
464.267 km
Speed
7.638 km/s
Apparent Right ascension
01h 59m 20s
Apparent Declination
-20° 30' 06"
Sunlit
Object is in daylight
Visualization observer readout
Local Sidereal Time
13:41:32
Azimuth
347.601° N
Elevation
-70.216°
Doppler factor
1
Orbital elements
Apogee altitude
480.596 km
Perigee altitude
449.762 km
Semi-major axis
6,843.316 km
Eccentricity
0.00225
Inclination
97.2791°
RAAN
32.1822°
Arg. of periapsis
60.7266°
True anomaly
Unknown
Mean anomaly
299.6224°
Eccentric anomaly
Unknown
Mean motion
3.83392 °/min
Orbital period
93.9 mins
BSTAR
0.00024562
Loading maneuver chart data...
Loading SW <> Apogee altitude chart data...
Loading historical data...
Loading historical data...
Loading historical data...
Loading historical data...
Loading historical data...
Loading historical data...
Loading historical data...

R5-S2 Visibility forecast

Observer location: undefined°, undefined°

Span
Click to sort rows by Start time (UTC) header in descending order
Start Az.
Max El. time (UTC)
Max El. Az.
Max El.
End time (UTC)
End Az.
6 mins2025-07-01 02:38:28.383Z23.378° NE2025-07-01 02:41:28.383Z88.412° E37.45°2025-07-01 02:44:28.383Z174.283° S
|